TimeCDT,TemperatureF,Dew PointF,Humidity,Sea Level PressureIn,VisibilityMPH,Wind Direction,Wind SpeedMPH,Gust SpeedMPH,PrecipitationIn,Events,Conditions,WindDirDegrees,DateUTC
12:53 AM,48.9,36.0,61,29.73,10.0,North,24.2,33.4,N/A,,Clear,10,2013-03-17 05:53:00
1:53 AM,46.9,35.1,63,29.74,10.0,North,26.5,33.4,N/A,,Clear,10,2013-03-17 06:53:00
2:53 AM,46.9,35.1,63,29.75,10.0,North,25.3,33.4,N/A,,Clear,10,2013-03-17 07:53:00
3:53 AM,45.0,34.0,65,29.76,10.0,North,21.9,-,N/A,,Clear,360,2013-03-17 08:53:00
4:53 AM,44.1,33.1,65,29.76,10.0,North,19.6,-,N/A,,Clear,10,2013-03-17 09:53:00
5:53 AM,43.0,33.1,68,29.78,10.0,North,13.8,-,N/A,,Clear,360,2013-03-17 10:53:00
6:53 AM,44.1,33.1,65,29.78,10.0,North,21.9,26.5,N/A,,Overcast,10,2013-03-17 11:53:00
7:53 AM,43.0,32.0,65,29.81,10.0,North,18.4,-,N/A,,Overcast,10,2013-03-17 12:53:00
8:53 AM,43.0,32.0,65,29.82,10.0,North,15.0,-,N/A,,Clear,360,2013-03-17 13:53:00
9:53 AM,44.1,32.0,63,29.82,10.0,North,11.5,-,N/A,,Clear,10,2013-03-17 14:53:00
10:53 AM,48.0,34.0,58,29.84,10.0,NW,11.5,-,N/A,,Scattered Clouds,310,2013-03-17 15:53:00
11:53 AM,48.0,34.0,58,29.83,10.0,NW,12.7,-,N/A,,Overcast,310,2013-03-17 16:53:00
12:53 PM,48.0,34.0,58,29.82,10.0,NNW,13.8,20.7,N/A,,Overcast,330,2013-03-17 17:53:00
1:53 PM,52.0,35.1,53,29.76,10.0,North,10.4,-,N/A,,Mostly Cloudy,360,2013-03-17 18:53:00
2:01 PM,51.8,35.6,54,29.76,10.0,North,9.2,-,N/A,,Scattered Clouds,360,2013-03-17 19:01:00
2:53 PM,55.0,37.0,51,29.73,10.0,Calm,Calm,-,N/A,,Clear,0,2013-03-17 19:53:00
3:53 PM,57.0,37.9,49,29.70,10.0,WNW,5.8,-,N/A,,Clear,300,2013-03-17 20:53:00
4:53 PM,57.9,39.0,49,29.67,10.0,Variable,4.6,-,N/A,,Clear,0,2013-03-17 21:53:00
5:53 PM,57.9,39.0,49,29.65,10.0,Calm,Calm,-,N/A,,Clear,0,2013-03-17 22:53:00
6:53 PM,59.0,39.0,48,29.65,10.0,Calm,Calm,-,N/A,,Clear,0,2013-03-17 23:53:00
7:53 PM,54.0,39.0,57,29.65,10.0,SE,9.2,-,N/A,,Clear,130,2013-03-18 00:53:00
8:53 PM,54.0,37.9,55,29.68,10.0,SE,9.2,-,N/A,,Scattered Clouds,140,2013-03-18 01:53:00
9:53 PM,54.0,39.0,57,29.62,10.0,ESE,12.7,-,N/A,,Clear,110,2013-03-18 02:53:00
10:53 PM,51.1,39.0,63,29.62,10.0,ESE,8.1,-,N/A,,Clear,120,2013-03-18 03:53:00
11:53 PM,46.9,39.0,74,29.61,10.0,ESE,5.8,-,N/A,,Clear,110,2013-03-18 04:53:00